Preview of NWS' New Version of Forecast
This preview is not operational and should not be used for support decisions.

Regional Weather Roundup (RWR)

Issued by National Weather Service (NWS)

                            
000
ASUS43 KMKX 181821
RWRWI 

WISCONSIN REGIONAL WEATHER ROUNDUP
NATIONAL WEATHER SERVICE MILWAUKEE/SULLIVAN WI
100 PM CDT MON MAR 18 2019

NOTE: "FAIR" INDICATES FEW OR NO CLOUDS BELOW 12,000 FEET WITH NO
SIGNIFICANT WEATHER AND/OR OBSTRUCTIONS TO VISIBILITY.

WIZ001-002-006>008-014>016-023>028-181900-
NORTHWEST WISCONSIN
  
CITY           SKY/WX    TMP DP  RH WIND       PRES   REMARKS
SUPERIOR ARPT  FAIR      38  25  58 W6        30.28F WCI  34          
6HR MIN TEMP:  19; 6HR MAX TEMP:  38;                                

ASHLAND        FAIR      38  24  57 SW10      30.28F WCI  31          
6HR MIN TEMP:  21; 6HR MAX TEMP:  38;                                

HAYWARD        FAIR      37  24  59 SW8       30.28S WCI  31          
6HR MIN TEMP:  19; 6HR MAX TEMP:  38;                                

SIREN          FAIR      37  26  63 W10       30.31S WCI  30          
6HR MIN TEMP:  18; 6HR MAX TEMP:  37;                                

CUMBERLAND     FAIR      34  27  75 SW7       30.30F WCI  28          
RICE LAKE      FAIR      37  27  68 SW6       30.32S WCI  32          
6HR MIN TEMP:  19; 6HR MAX TEMP:  36;                                

CHETEK         FAIR      37  27  65 SW6       30.31F WCI  33          
LADYSMITH      CLOUDY    38  26  61 SW9       30.30F WCI  31          
6HR MIN TEMP:  14; 6HR MAX TEMP:  39;                                

EAU CLAIRE     FAIR      33  27  78 W8        30.33F HAZE    WCI  26  
6HR MIN TEMP:  19; 6HR MAX TEMP:  33;                                

MENOMONIE      FAIR      32  24  72 S6        30.33F WCI  26          
NEW RICHMOND   FAIR      37  24  58 W6        30.32F WCI  33          
6HR MIN TEMP:  22; 6HR MAX TEMP:  37;                                

OSCEOLA        FAIR      36  28  71 SW7       30.36S WCI  31          
6HR MIN TEMP:  19; 6HR MAX TEMP:  37;                                

$$
 
WIZ003>005-009-010-017-018-181900-
NORTH CENTRAL WISCONSIN
  
CITY           SKY/WX    TMP DP  RH WIND       PRES   REMARKS
MANITOWISH WTR NOT AVBL                                               
ARBOR VITAE    CLOUDY    37  25  63 W5        30.24F WCI  33          
6HR MIN TEMP:  11; 6HR MAX TEMP:  37;                                

WOODRUFF       CLOUDY    37  25  63 W5        30.24F WCI  33          
6HR MIN TEMP:  11; 6HR MAX TEMP:  37;                                

RHINELANDER    CLOUDY    37  20  50 NW8       30.25F WCI  31          
6HR MIN TEMP:  11; 6HR MAX TEMP:  39;                                

EAGLE RIVER    PTSUNNY   36  15  43 N9G16     30.23S WCI  29          
6HR MIN TEMP:   4; 6HR MAX TEMP:  36;                                

LAND O LAKES   NOT AVBL                                               
PHILLIPS       NOT AVBL                                               
TOMAHAWK       CLOUDY    36  21  54 W6        30.27F WCI  31          
6HR MIN TEMP:   7; 6HR MAX TEMP:  37;                                

MEDFORD        CLOUDY    32  24  71 SW8       30.28F WCI  25          
MERRILL        PTSUNNY   37  24  58 W6        30.28F WCI  32          
6HR MIN TEMP:   9; 6HR MAX TEMP:  37;                                

$$
 
WIZ029-030-035-036-043>047-181900-
CENTRAL WISCONSIN
  
CITY           SKY/WX    TMP DP  RH WIND       PRES   REMARKS
WAUSAU         CLOUDY    34  24  67 W9        30.29S WCI  27          
6HR MIN TEMP:  17; 6HR MAX TEMP:  34;                                

MOSINEE        PTSUNNY   36  27  69 W10       30.32S WCI  28          
MARSHFIELD     FAIR      35  23  61 W9        30.31S WCI  28          
6HR MIN TEMP:  18; 6HR MAX TEMP:  35;                                

STEVENS POINT  FAIR      34  22  60 W10       30.33S WCI  26          
6HR MIN TEMP:  16; 6HR MAX TEMP:  34;                                

WAUPACA        FAIR      41  24  51 W8        30.33F                  
6HR MIN TEMP:  23; 6HR MAX TEMP:  40;                                

WAUTOMA        FAIR      36  24  62 W7        30.34F WCI  30          
6HR MIN TEMP:  23; 6HR MAX TEMP:  38;                                

WISC RAPIDS    FAIR      38  21  50 W7        30.34S WCI  33          
6HR MIN TEMP:  19; 6HR MAX TEMP:  38;                                

CAMP DOUGLAS   MOSUNNY   39  25  56 NW7       30.34F WCI  34          
$$
 
WIZ011>013-019>022-031-037>040-048>050-181900-
NORTHEAST WISCONSIN
  
CITY           SKY/WX    TMP DP  RH WIND       PRES   REMARKS
ANTIGO         CLOUDY    34  23  64 W8        30.27F WCI  27          
6HR MIN TEMP:  14; 6HR MAX TEMP:  34;                                

SHAWANO        FAIR      43  20  41 W10       30.30F                  
6HR MIN TEMP:  19; 6HR MAX TEMP:  42;                                

OCONTO         FAIR      38  20  48 W12       30.30F WCI  30          
6HR MIN TEMP:  15; 6HR MAX TEMP:  38;                                

STURGEON BAY   FAIR      37  17  44 SW10      30.31F WCI  30          
6HR MIN TEMP:  18; 6HR MAX TEMP:  37;                                

GREEN BAY      FAIR      39  21  48 W9        30.33F WCI  33          
6HR MIN TEMP:  24; 6HR MAX TEMP:  40;                                

MANITOWOC      FAIR      38  23  55 VRB3      30.34F                  
6HR MIN TEMP:  25; 6HR MAX TEMP:  38;                                

APPLETON       MOSUNNY   37  18  44 W8        30.32S WCI  31          
CLINTONVILLE   FAIR      38  20  47 W5        30.31F WCI  35          
6HR MIN TEMP:  20; 6HR MAX TEMP:  38;                                

OSHKOSH        FAIR      37  23  56 W9        30.33F WCI  30          
6HR MIN TEMP:  24; 6HR MAX TEMP:  37;                                

$$
 
WIZ032>034-041-042-053>061-181900-
SOUTHWEST WISCONSIN
  
CITY           SKY/WX    TMP DP  RH WIND       PRES   REMARKS
LA CROSSE      FAIR      36  29  75 S8        30.39S WCI  30          
6HR MIN TEMP:  24; 6HR MAX TEMP:  36;                                

SPARTA         FAIR      38  27  64 W8        30.37S WCI  32          
6HR MIN TEMP:  22; 6HR MAX TEMP:  38;                                

VIROQUA        FAIR      38  30  72 W5        30.35S WCI  35          
6HR MIN TEMP:  26; 6HR MAX TEMP:  38;                                

BOSCOBEL       FAIR      43  26  51 NW8       30.38F                  
6HR MIN TEMP:  26; 6HR MAX TEMP:  43;                                

PRAIRIE DU CHI FAIR      42  28  57 W10       30.38F                  
6HR MIN TEMP:  25; 6HR MAX TEMP:  41;                                

PLATTEVILLE    CLOUDY    41  32  70 W13       30.37F                  
6HR MIN TEMP:  30; 6HR MAX TEMP:  41;                                

$$

WIZ056-057-062-063-064-067-068-181900-
SOUTH CENTRAL WISCONSIN
  
CITY           SKY/WX    TMP DP  RH WIND       PRES   REMARKS
REEDSBURG      FAIR      39  23  53 W10       30.34F WCI  32          
6HR MIN TEMP:  28; 6HR MAX TEMP:  38;                                

BARABOO/DELLS  FAIR      38  24  56 W8        30.34S WCI  32          
6HR MIN TEMP:  28; 6HR MAX TEMP:  38;                                

LONE ROCK      FAIR      40  26  57 W9        30.36F WCI  34          
6HR MIN TEMP:  31; 6HR MAX TEMP:  41;                                

MINERAL POINT  PTSUNNY   41  30  65 W14       30.36S                  
MADISON        FAIR      38  24  57 CALM      30.35F                  
6HR MIN TEMP:  25; 6HR MAX TEMP:  38;                                

MIDDLETON      FAIR      41  26  55 W8        30.36S                  
6HR MIN TEMP:  28; 6HR MAX TEMP:  41;                                

WATERTOWN      CLOUDY    35  26  67 W6        30.36S WCI  30          
6HR MIN TEMP:  22; 6HR MAX TEMP:  36;                                

MONROE         PTSUNNY   40  25  55 MISG      30.35F                  
6HR MIN TEMP:  30; 6HR MAX TEMP:  39;                                

JANESVILLE     PTSUNNY   43  25  49 W10       30.37F                  
$$
 
WIZ051-052-058>065-066-070>072-181900-
SOUTHEAST WISCONSIN
  
CITY           SKY/WX    TMP DP  RH WIND       PRES   REMARKS
MILWAUKEE      PTSUNNY   40  21  46 NW3       30.35S                  
6HR MIN TEMP:  29; 6HR MAX TEMP:  42;                                

WAUKESHA       CLOUDY    36  25  64 W13       30.36F WCI  27          
MILWAUKEE/TIMM PTSUNNY   39  21  48 W10       30.36S WCI  32          
RACINE         PTSUNNY   42  25  50 MISG      30.36F                  
6HR MIN TEMP:  27; 6HR MAX TEMP:  43;                                

KENOSHA        FAIR      42  29  59 W10       30.35F                  
6HR MIN TEMP:  26; 6HR MAX TEMP:  43;                                

FOND DU LAC    FAIR      38  24  57 W3        30.34F                  
6HR MIN TEMP:  24; 6HR MAX TEMP:  39; 6HR PCP: TRACE;                

SHEBOYGAN      FAIR      39  24  55 W8        30.33F WCI  33          
6HR MIN TEMP:  26; 6HR MAX TEMP:  39;                                

WEST BEND      FAIR      36  25  64 W7        30.34F WCI  30          
JUNEAU         CLOUDY    34  24  66 CALM      30.36S                  
6HR MIN TEMP:  23; 6HR MAX TEMP:  36;                                

$$

LSZ147-162-181900-
LAKE SUPERIOR
  
STATION/POSITION TIME  TEMP    WIND        PRES    WAVE
                       AIR SEA DIR/SP/G            HT/PER
                 (UTC) (F)     (DEG/KT/KT) (MB)    (FT/S)
DEVILS ISLAND    1800   33     250/  6/  8 1025.9S
SAXON HARBOR     1740   37      30/  4/  6 1025.1F
$$
 
LMZ867-665-643>646-181900-
LAKE MICHIGAN
  
STATION/POSITION TIME  TEMP    WIND        PRES    WAVE
                       AIR SEA DIR/SP/G            HT/PER
                 (UTC) (F)     (DEG/KT/KT) (MB)    (FT/S)
CHAMBERS ISLAND  1740   36     190/  6/ 13 1025.1S
NORTHPORT PIER   1740   39     250/  3/  7 1025.4F
KEWAUNEE LAKESHO 1754   38     270/  4/  7 1025.8F
SHEBOYGAN LAKESH 1800   33     140/  4/  5 1028.0F
PORT WASHINGTON  1730   40     280/  8/ 13 1028.8S
MILWAUKEE LAKESH 1800   39                   N/A
KENOSHA   LAKESH 1800   38     140/  8/ 11 1028.1
$$

TC  - TEMPERATURE IN CELSIUS
VSB - VISIBILITY IN STATUTE MILES
WCI - WIND CHILL INDEX
HX